Date,TemperatureHighF,TemperatureAvgF,TemperatureLowF,DewpointHighF,DewpointAvgF,DewpointLowF,HumidityHigh,HumidityAvg,HumidityLow,PressureMaxIn,PressureMinIn,WindSpeedMaxMPH,WindSpeedAvgMPH,GustSpeedMaxMPH,PrecipitationSumIn
2014-1-1,71.6,56.7,46.8,32.0,22.0,11.5,42,28,10,30.01,29.93,8,3,8,0.00
2014-1-2,73.6,56.9,41.5,29.5,23.8,12.7,58,32,10,30.03,29.93,7,3,7,0.00
2014-1-3,73.8,57.5,43.9,30.7,24.6,13.4,58,31,10,29.94,29.81,9,3,9,0.00
2014-1-4,65.3,51.0,40.6,38.0,28.7,19.1,70,47,18,29.92,29.82,9,2,9,0.00
2014-1-5,64.2,50.4,40.6,30.7,12.6,-6.5,65,28,10,30.03,29.90,11,4,11,0.00
2014-1-6,65.3,51.1,39.7,19.0,1.3,-11.1,29,13,10,30.09,29.98,11,3,11,0.00
2014-1-7,68.7,52.7,35.1,24.8,12.5,3.1,46,22,10,30.01,29.90,9,3,9,0.00
2014-1-8,68.0,52.0,40.8,24.8,15.9,3.8,47,27,10,29.96,29.89,8,3,10,0.00
2014-1-9,64.8,49.1,36.9,22.9,15.5,5.4,54,29,10,29.93,29.83,8,3,9,0.00
2014-1-10,64.8,50.3,36.1,24.8,20.9,16.8,57,34,16,30.00,29.88,11,3,11,0.00
2014-1-11,72.0,54.2,38.3,30.4,25.3,19.4,59,36,14,30.06,29.91,6,2,6,0.00
2014-1-12,68.7,53.4,40.3,32.2,27.5,15.7,63,40,17,30.05,28.41,56,3,56,0.00
2014-1-13,63.9,50.4,44.2,26.3,12.5,2.5,43,22,12,30.16,29.71,14,4,14,0.00
2014-1-14,70.0,56.7,44.4,15.4,8.8,-0.5,27,16,10,29.77,29.69,16,5,16,0.00
2014-1-15,73.4,57.1,37.0,20.0,11.2,0.7,45,18,10,29.78,29.65,8,3,8,0.00
2014-1-16,72.0,58.8,49.1,23.8,11.9,-0.5,28,16,10,29.66,29.56,12,4,12,0.00
2014-1-17,75.6,59.3,43.0,15.5,8.4,-2.7,30,14,10,29.68,29.57,8,3,8,0.00
2014-1-18,74.7,59.3,48.4,14.5,7.0,-2.0,20,12,10,29.64,29.55,8,3,8,0.00
2014-1-19,76.5,60.5,46.2,16.0,10.4,2.8,26,14,10,29.68,29.59,9,3,9,0.00
2014-1-20,76.8,60.7,50.9,17.6,13.1,3.3,23,16,10,29.71,29.61,8,4,8,0.00
2014-1-21,78.1,60.9,42.8,21.3,11.1,4.4,36,15,10,29.71,29.58,7,3,7,0.00
2014-1-22,74.5,60.2,44.4,22.2,13.8,6.1,39,18,10,29.58,29.40,9,3,9,0.00
2014-1-23,70.0,56.7,42.1,23.1,16.5,9.0,46,23,10,29.66,29.42,11,3,11,0.00
2014-1-24,66.9,56.9,46.8,24.8,19.7,14.7,39,24,15,29.78,29.67,6,2,6,0.00
2014-1-25,71.6,59.7,51.4,43.3,29.9,16.6,47,33,21,29.71,29.59,9,3,9,0.00
2014-1-26,70.7,56.3,46.8,34.5,28.7,20.4,58,37,15,29.95,29.55,9,3,9,0.00
2014-1-27,70.5,56.4,46.0,32.0,24.2,15.8,42,30,14,29.92,28.40,56,3,56,0.00
2014-1-28,71.1,56.1,45.7,24.8,18.6,8.9,39,26,10,29.97,29.87,13,4,13,0.00
2014-1-29,73.9,59.8,46.8,22.5,12.1,0.1,37,17,10,29.96,29.85,18,3,18,0.00
2014-1-30,75.4,62.3,43.5,23.6,18.9,10.2,40,20,10,29.88,29.73,13,3,13,8.79
2014-1-31,66.9,60.1,52.3,38.4,28.7,18.4,57,33,18,29.77,29.69,18,7,18,0.00
2014-2-1,57.4,49.7,44.1,47.1,38.6,29.1,94,68,39,29.85,29.72,14,4,14,0.20
2014-2-2,59.0,47.7,36.9,34.4,28.2,22.0,77,50,25,29.93,29.81,9,2,9,0.00
2014-2-3,57.9,46.5,34.5,31.4,25.7,9.0,83,48,17,29.81,29.65,17,3,17,0.00
2014-2-4,57.0,42.7,29.8,35.5,28.9,25.1,94,63,31,29.92,29.77,14,3,14,0.00
2014-2-5,57.0,47.3,38.1,32.8,30.0,27.5,72,52,34,29.90,29.79,11,3,11,0.00
2014-2-6,54.1,46.6,38.1,36.5,30.2,26.5,69,53,37,29.89,29.80,11,2,11,0.00
2014-2-7,63.0,50.6,40.1,39.2,34.2,29.8,82,56,30,30.00,29.83,11,2,11,0.00
2014-2-8,44.1,41.7,39.4,34.9,33.1,32.0,78,71,64,30.00,29.98,5,2,5,0.00
2014-2-9,75.2,58.3,45.5,38.7,35.2,29.1,64,44,23,30.04,29.91,9,3,9,0.00
2014-2-10,73.4,57.6,42.8,35.5,30.7,19.8,68,40,14,29.93,29.80,17,4,17,0.00
2014-2-11,72.3,58.6,49.6,35.3,26.4,11.9,55,34,10,29.97,29.82,13,4,13,0.00
2014-2-12,74.8,59.6,48.7,24.4,18.2,-3.4,36,22,10,30.02,29.92,14,4,14,0.00
2014-2-13,81.0,64.1,50.2,25.7,20.7,13.8,34,21,10,30.00,29.88,10,3,10,0.00
2014-2-14,84.6,66.4,52.7,26.7,21.2,14.2,34,20,10,29.99,29.91,9,3,9,0.00
2014-2-15,86.9,68.6,56.3,23.9,17.0,11.0,27,14,10,29.97,29.90,9,3,9,0.00
2014-2-16,82.4,67.5,53.8,24.2,17.8,9.3,31,16,10,29.97,29.89,13,4,13,0.00
2014-2-17,83.5,67.9,55.8,21.3,16.4,10.0,25,14,10,29.98,29.87,12,4,12,0.00
2014-2-18,81.3,66.2,54.3,22.2,17.8,8.5,27,17,10,29.93,29.81,8,3,8,0.00
2014-2-19,75.2,61.8,47.1,30.6,21.1,7.2,43,23,10,29.85,29.72,11,3,11,0.00
2014-2-20,73.6,58.0,45.5,26.0,13.6,-0.8,44,21,10,29.97,29.81,11,4,11,0.00
2014-2-21,75.7,58.9,47.1,14.9,6.9,0.4,18,13,10,29.94,29.81,11,3,11,0.00
2014-2-22,76.5,60.5,44.8,15.8,8.8,1.4,25,13,10,29.85,29.78,11,3,11,0.00
2014-2-23,76.5,61.8,52.2,15.9,11.6,6.3,19,14,10,29.93,29.84,11,3,11,0.00
2014-2-24,77.9,64.1,54.7,29.5,22.1,12.4,31,21,10,29.92,29.83,8,3,11,0.00
2014-2-25,71.8,62.1,54.3,33.7,28.2,24.8,42,28,20,29.91,29.85,10,3,10,0.00
2014-2-26,76.8,62.1,48.7,41.0,33.9,20.6,59,38,13,29.93,29.81,12,3,12,0.00
2014-2-27,74.7,59.7,45.1,40.2,36.3,31.3,71,45,21,29.89,29.75,19,3,19,0.00
2014-2-28,78.4,64.4,47.1,41.8,36.4,29.1,70,39,17,29.81,29.73,15,4,15,0.00
2014-3-1,66.2,57.5,50.7,52.6,44.4,34.2,95,64,33,29.83,29.72,28,7,28,0.19
2014-3-2,63.7,51.8,42.4,48.4,43.3,39.2,98,75,43,30.00,29.79,23,2,23,0.20
2014-3-3,70.9,57.6,45.5,46.4,44.0,40.8,85,63,37,29.97,29.82,13,3,13,0.00
2014-3-4,73.0,58.6,49.5,45.3,42.1,33.6,77,57,25,29.88,29.76,12,3,12,0.00
2014-3-5,77.0,62.0,50.2,41.3,32.3,24.3,66,36,16,29.95,29.86,13,4,13,0.00
2014-3-6,80.6,65.3,54.3,35.4,26.7,15.6,45,26,10,29.94,29.80,14,3,16,0.00
2014-3-7,75.9,61.3,47.1,42.6,34.9,21.3,66,42,13,29.83,29.74,27,4,27,0.00
2014-3-8,72.9,60.9,49.8,39.3,27.4,10.4,63,33,10,29.99,29.82,21,5,21,0.00
2014-3-9,68.9,59.6,51.4,30.5,19.8,7.4,40,23,10,30.10,29.94,30,9,30,0.05
2014-3-10,77.5,61.8,46.0,32.1,21.2,11.4,51,23,10,30.00,29.86,12,3,12,0.00
2014-3-11,75.6,59.7,43.0,38.1,28.5,13.7,67,36,10,29.91,29.81,17,3,17,0.00
2014-3-12,78.3,64.8,51.4,32.0,24.5,15.1,43,25,10,29.93,29.83,22,4,22,0.00
2014-3-13,79.2,63.8,50.7,31.4,25.1,17.0,41,25,10,29.85,29.73,16,3,16,0.00
2014-3-14,72.5,58.6,44.8,35.2,28.7,18.6,52,34,15,29.94,29.79,19,3,19,0.00
2014-3-15,72.7,60.1,43.5,35.0,20.9,1.6,61,28,10,30.03,29.91,19,6,19,0.00
2014-3-16,73.8,60.8,46.0,13.8,5.2,-5.5,19,11,10,30.13,30.00,17,5,17,0.00
2014-3-17,80.1,64.8,47.5,18.5,11.4,2.5,22,13,10,30.00,29.61,16,4,16,0.00
2014-3-18,76.5,61.8,45.7,19.5,10.2,-0.6,31,14,10,29.82,29.62,14,4,14,0.00
2014-3-19,78.3,62.8,48.6,17.1,8.8,1.8,17,12,10,29.95,29.82,10,3,10,0.00
2014-3-20,81.0,65.9,49.8,19.2,12.6,6.0,22,13,10,29.96,29.78,11,3,11,0.00
2014-3-21,79.0,64.0,48.7,20.1,16.3,7.9,31,17,10,29.85,29.76,14,4,14,0.00
2014-3-22,78.6,62.9,45.5,19.3,15.4,7.5,32,17,10,29.91,29.81,14,4,14,0.00
2014-3-23,80.4,65.9,53.4,23.4,18.4,11.2,30,18,10,29.97,29.85,13,4,13,0.00
2014-3-24,81.7,67.5,54.9,22.9,19.1,11.6,27,17,10,29.95,29.84,13,3,13,0.00
2014-3-25,80.8,66.1,51.8,28.6,21.5,13.9,39,20,10,29.86,29.70,21,4,21,0.00
2014-3-26,77.5,61.9,45.0,42.6,27.9,12.1,57,32,11,29.76,29.66,19,6,21,0.00
2014-3-27,144.7,60.1,45.3,77.0,34.0,21.6,74,43,8,33.02,29.76,55,6,55,3.21
2014-3-28,73.8,58.4,42.8,34.2,26.1,16.6,58,33,12,30.08,29.96,12,4,12,0.00
2014-3-29,83.5,65.9,50.2,24.9,17.5,8.9,33,17,10,30.10,29.93,9,3,9,0.00
2014-3-30,78.8,64.3,48.0,23.1,16.4,10.6,36,17,10,29.95,29.85,17,4,17,0.00
2014-3-31,79.3,63.0,43.7,23.0,16.6,5.9,42,19,10,29.99,29.87,17,4,17,0.00
2014-4-1,78.3,63.7,43.9,25.3,14.2,4.9,37,16,10,29.92,29.80,18,5,18,0.00
2014-4-2,65.7,56.0,45.1,35.2,26.7,12.6,52,34,16,29.91,29.80,21,6,21,0.00
2014-4-3,67.8,53.4,35.4,28.6,17.9,6.8,59,29,10,30.00,29.91,17,4,17,0.00
2014-4-4,77.0,60.0,45.5,16.2,9.8,1.6,23,14,10,29.96,29.80,13,3,13,0.00
2014-4-5,71.6,58.2,41.7,18.0,12.7,5.2,35,18,10,29.91,29.79,15,3,15,0.00
2014-4-6,72.9,59.3,44.4,21.8,14.5,4.2,36,19,10,29.98,29.90,17,4,17,0.00
2014-4-7,82.2,66.2,48.2,20.3,15.5,9.4,27,15,10,30.12,29.97,18,5,18,0.00
2014-4-8,89.6,73.0,59.4,25.9,16.0,5.4,18,12,10,30.15,30.04,11,3,11,0.00
2014-4-9,91.4,74.8,61.5,27.3,14.6,4.5,10,10,10,30.08,29.97,11,3,11,0.00
2014-4-10,91.9,75.6,62.2,27.7,15.2,5.0,10,10,10,30.05,29.91,13,3,13,0.00
2014-4-11,90.9,75.5,60.3,26.9,15.2,3.5,10,10,10,30.00,29.82,14,2,14,0.00
2014-4-12,81.3,69.5,53.1,25.6,13.5,3.4,21,12,10,29.88,29.73,17,4,17,0.00
2014-4-13,82.9,66.9,46.9,32.7,19.6,9.6,33,18,10,29.90,29.77,14,4,14,0.00
2014-4-14,80.8,66.7,52.7,28.4,13.2,2.4,37,14,10,30.02,29.90,14,4,14,0.00
2014-4-15,86.9,70.4,51.3,23.9,11.3,-3.1,12,10,10,29.99,29.77,12,3,12,0.00
2014-4-16,85.5,70.9,56.7,22.8,11.6,0.7,10,10,10,29.86,29.74,27,4,27,0.00
2014-4-17,88.9,72.3,52.3,25.4,17.1,4.2,27,13,10,29.95,29.84,11,2,11,0.00
2014-4-18,74.7,66.6,58.3,40.7,32.2,15.3,44,29,14,29.99,29.87,17,3,19,0.00
2014-4-19,80.1,66.6,57.6,52.2,40.4,30.1,70,41,17,30.01,29.89,12,2,12,0.01
2014-4-20,84.9,70.7,56.7,41.7,36.4,27.5,53,32,14,30.05,29.96,13,3,13,0.00
2014-4-21,91.0,82.5,62.8,36.1,27.0,22.1,37,14,10,30.04,29.91,12,4,12,0.00
2014-4-22,90.7,75.7,58.8,37.6,27.9,16.6,39,19,10,29.95,29.77,16,4,16,0.00
2014-4-23,82.8,68.4,52.5,34.3,20.2,2.4,40,18,10,29.91,29.79,19,4,19,0.00
2014-4-24,85.8,66.6,55.0,23.0,11.5,3.6,16,12,10,29.96,29.86,11,2,11,0.00
2014-4-25,87.3,72.3,56.1,24.1,14.8,9.0,20,11,10,29.92,29.74,17,3,17,0.00
2014-4-26,69.1,59.4,44.8,50.4,31.8,16.8,95,40,16,29.85,29.67,25,8,25,0.07
2014-4-27,72.9,57.8,40.1,39.7,29.2,16.4,80,40,13,29.91,29.81,19,4,19,0.00
2014-4-28,78.6,63.3,45.1,35.1,25.3,15.9,54,28,10,29.95,29.87,14,4,16,0.00
2014-4-29,78.6,66.7,56.7,28.1,10.2,0.7,31,11,10,30.02,29.91,18,6,18,0.00
2014-4-30,79.5,67.0,52.3,18.2,8.9,-2.2,12,10,10,30.01,29.84,15,5,15,0.00
2014-5-1,82.2,69.5,61.0,21.9,16.3,4.6,19,13,10,30.00,29.87,36,9,36,0.63
2014-5-2,88.5,73.2,58.1,24.9,13.7,1.9,17,10,10,30.03,29.91,17,3,17,0.00
2014-5-3,93.4,78.8,63.1,28.8,18.0,6.8,12,10,10,30.00,29.89,17,3,17,0.00
2014-5-4,93.6,77.0,55.4,28.9,17.6,4.6,17,11,10,30.02,29.89,16,3,16,0.00
2014-5-5,89.8,76.0,59.7,31.1,19.3,5.7,25,12,10,30.00,29.84,15,3,15,0.00
2014-5-6,85.6,70.7,54.3,35.1,20.3,10.3,39,17,10,29.86,29.67,24,6,24,0.00
2014-5-7,72.3,60.9,49.1,38.9,28.2,11.6,57,32,10,29.88,29.73,19,4,19,0.00
2014-5-8,79.2,64.6,51.1,34.2,24.4,14.8,45,25,10,29.96,29.87,11,3,11,0.00
2014-5-9,83.8,69.8,55.8,29.5,21.6,13.8,32,18,10,29.99,29.89,13,3,13,0.00
2014-5-10,89.1,74.4,58.3,33.7,24.9,18.7,30,17,10,29.90,29.69,21,6,21,0.00
2014-5-11,76.6,67.0,51.3,43.4,22.9,0.7,40,21,10,29.91,29.67,20,7,20,0.00
2014-5-12,81.9,65.6,48.6,23.1,14.5,4.2,25,14,10,30.00,29.89,13,4,13,0.00
2014-5-13,84.7,71.3,58.5,22.2,12.2,3.0,12,10,10,30.08,29.99,15,5,15,0.00
2014-5-14,84.2,73.3,63.1,21.8,15.9,8.2,18,11,10,30.11,30.02,21,9,23,0.04
2014-5-15,93.0,79.0,65.1,28.5,17.8,7.2,11,10,10,30.10,29.98,14,3,14,0.00
2014-5-16,97.5,82.5,68.0,31.8,20.5,9.4,10,10,10,30.04,29.90,19,4,19,0.00
2014-5-17,97.0,80.5,61.0,31.5,19.8,6.8,15,10,10,29.96,29.82,12,3,12,0.00
2014-5-18,97.0,79.3,60.3,31.5,18.1,3.5,10,10,10,29.89,29.79,16,3,16,0.00
2014-5-19,94.3,79.1,58.3,29.4,18.4,2.0,17,10,10,29.90,29.82,16,3,16,0.00
2014-5-20,93.2,77.6,59.5,28.6,19.8,6.7,20,12,10,29.93,29.84,19,5,19,0.00
2014-5-21,88.7,74.8,60.4,25.2,17.3,5.7,17,11,10,29.91,29.83,21,5,21,0.00
2014-5-22,88.0,73.5,59.2,24.5,16.0,4.2,18,11,10,29.94,29.82,24,4,24,0.00
2014-5-23,84.6,69.4,54.3,34.8,18.9,8.4,40,16,10,29.94,29.83,17,3,17,0.00
2014-5-24,82.8,70.2,55.2,38.3,28.8,17.3,45,24,10,29.95,29.86,27,3,27,0.00
2014-5-25,86.5,75.1,65.3,47.7,33.7,24.3,51,23,12,29.94,29.86,17,4,17,0.00
2014-5-26,93.4,79.4,60.4,41.7,32.0,23.6,39,20,10,29.99,29.91,16,4,16,0.00
2014-5-27,100.8,85.1,65.5,38.6,31.0,22.6,32,16,10,30.02,29.88,99,3,99,0.00
2014-5-28,100.6,84.6,67.8,34.1,27.2,15.6,24,13,10,29.95,29.81,12,3,12,0.00
2014-5-29,88.9,79.1,71.8,47.1,34.5,19.3,31,21,12,30.01,29.88,14,3,14,0.00
2014-5-30,99.0,85.1,70.5,45.9,35.4,24.8,39,19,10,29.93,29.82,13,4,13,0.00
2014-5-31,100.8,82.7,71.1,34.3,30.9,16.6,21,16,10,29.91,29.81,100,4,100,0.00
2014-6-1,99.9,84.2,64.2,33.7,26.1,15.6,22,13,10,29.91,29.82,12,3,12,0.00
2014-6-2,104.0,87.9,72.7,36.8,25.5,14.8,13,10,10,29.90,29.82,14,3,14,0.00
2014-6-3,103.5,87.7,70.0,36.2,27.4,17.0,17,12,10,29.90,29.80,15,3,15,0.00
2014-6-4,103.1,88.0,72.5,36.1,24.7,12.7,10,10,10,29.88,29.78,14,4,14,0.00
2014-6-5,102.6,87.4,72.1,35.7,24.2,12.6,10,10,10,29.85,29.73,13,4,13,0.00
2014-6-6,99.5,86.0,64.9,33.4,23.2,7.0,10,10,10,29.82,29.74,11,4,11,0.00
2014-6-7,98.6,84.4,67.1,39.3,22.5,10.8,36,10,10,29.91,29.74,11,3,11,0.00
2014-6-8,98.6,84.9,68.9,37.3,26.5,12.7,18,12,10,29.86,29.76,9,3,11,0.00
2014-6-9,101.7,87.0,67.6,45.4,30.8,18.2,39,15,10,29.90,29.78,14,4,14,0.00
2014-6-10,102.4,87.7,72.1,46.3,30.8,12.9,31,14,10,29.89,29.79,13,4,13,0.00
2014-6-11,99.3,85.0,71.2,51.4,38.3,20.3,45,22,10,29.92,29.83,19,4,19,0.00
2014-6-12,101.7,86.4,68.2,47.8,34.4,22.9,33,17,10,29.97,29.86,17,3,17,0.00
2014-6-13,100.9,87.2,70.2,54.4,43.1,31.8,50,25,10,29.95,29.80,17,4,17,0.00
2014-6-14,98.1,84.4,68.0,44.1,32.5,10.5,39,18,10,29.87,29.77,19,5,19,0.00
2014-6-15,97.5,83.2,66.4,39.5,28.3,10.5,35,15,10,29.88,29.81,17,5,17,0.00
2014-6-16,99.0,83.6,64.0,41.7,27.6,15.9,29,14,10,29.92,29.83,22,5,22,0.00
2014-6-17,96.8,84.8,71.4,45.6,41.9,38.4,35,23,14,29.94,29.83,19,6,19,0.00
2014-6-18,94.5,82.0,65.5,82.0,40.2,30.7,77,24,11,29.92,29.84,17,5,17,0.00
2014-6-19,97.3,85.3,66.7,41.4,34.2,27.8,36,18,10,29.98,29.87,15,4,15,0.00
2014-6-20,101.1,87.6,72.3,35.9,31.5,22.9,25,15,10,29.95,29.84,17,4,17,0.00
2014-6-21,99.5,86.1,67.6,44.8,34.1,26.0,36,17,10,29.95,29.84,17,3,17,0.00
2014-6-22,100.6,87.2,66.9,38.5,30.0,17.9,28,14,10,29.96,29.83,15,4,15,0.01
2014-6-23,100.8,85.7,66.9,34.3,27.9,12.6,28,13,10,29.95,29.85,17,3,17,0.00
2014-6-24,99.9,85.3,68.0,33.7,25.7,12.1,19,12,10,30.00,29.87,16,4,16,0.00
2014-6-25,101.1,87.6,68.4,44.0,32.1,24.2,35,15,10,29.97,29.84,14,5,14,0.00
2014-6-26,101.3,90.9,72.7,49.5,33.2,18.4,41,14,10,29.94,29.79,18,6,18,0.00
2014-6-27,97.9,84.3,66.4,37.7,29.0,20.7,27,14,10,29.87,29.76,16,4,16,0.00
2014-6-28,100.4,86.1,68.2,40.8,33.4,23.2,33,17,10,29.92,29.82,12,3,12,0.00
2014-6-29,102.6,87.5,70.2,57.6,43.1,27.8,51,24,10,29.98,29.86,12,3,12,0.00
2014-6-30,102.9,88.1,70.0,56.9,38.8,20.6,52,21,10,29.97,29.83,13,4,13,0.00
2014-7-1,101.7,87.7,70.0,38.1,32.1,25.6,27,15,10,29.94,29.84,14,4,14,0.00
2014-7-2,100.9,88.2,71.2,48.4,38.3,29.3,36,19,10,29.99,29.86,13,4,13,0.00
2014-7-3,102.0,84.3,71.1,70.0,53.8,40.7,94,43,13,30.07,29.88,17,3,17,0.45
2014-7-4,93.7,80.1,71.6,66.1,63.3,57.2,80,58,33,30.09,29.99,17,3,17,0.00
2014-7-5,94.3,81.6,73.6,71.2,63.2,57.1,80,55,30,30.11,29.97,16,3,16,0.01
2014-7-6,98.2,85.1,72.3,64.1,58.9,51.6,71,44,22,30.07,29.88,11,3,11,0.00
2014-7-7,93.7,80.7,70.3,72.4,64.1,58.6,90,58,34,29.99,29.88,103,2,103,0.21
2014-7-8,96.6,82.4,69.4,68.7,64.3,58.1,87,58,29,30.04,29.91,17,3,17,0.04
2014-7-9,92.7,81.0,69.4,70.2,63.0,52.5,91,58,27,30.04,29.91,13,3,17,0.05
2014-7-10,97.5,84.1,72.9,65.9,61.5,54.5,76,49,26,30.00,29.86,13,2,13,0.00
2014-7-11,96.6,83.2,75.0,68.9,63.6,55.7,78,53,27,30.00,29.91,21,2,21,0.09
2014-7-12,97.5,81.2,71.8,70.0,62.8,55.8,82,56,25,30.01,29.93,14,3,14,0.21
2014-7-13,97.5,80.6,69.1,69.8,62.9,52.2,97,59,23,30.08,29.91,15,3,15,0.22
2014-7-14,88.7,77.6,68.4,74.0,69.1,64.8,99,77,48,30.07,30.00,11,2,11,0.12
2014-7-15,88.2,77.6,72.1,72.0,67.3,62.7,87,72,45,30.11,29.97,8,2,12,0.00
2014-7-16,95.4,83.1,68.5,69.6,61.0,48.1,90,52,23,30.01,29.89,14,3,14,0.00
2014-7-17,96.1,83.5,70.9,60.4,48.0,32.7,62,33,12,30.00,29.90,14,3,14,0.00
2014-7-18,97.5,82.5,66.2,52.5,46.2,39.0,54,31,14,30.02,29.93,9,2,9,0.00
2014-7-19,97.2,85.4,74.5,55.0,51.4,45.8,47,32,18,30.03,29.92,11,3,11,0.00
2014-7-20,99.7,86.6,72.9,51.1,40.9,30.0,44,23,10,30.05,29.94,11,3,11,0.00
2014-7-21,98.8,85.9,72.5,50.3,39.9,30.0,41,22,10,30.08,29.98,14,4,14,0.00
2014-7-22,104.9,90.4,77.7,54.3,43.8,35.8,35,21,10,30.05,29.95,17,3,17,0.00
2014-7-23,104.0,92.0,78.6,60.0,54.2,44.5,47,29,14,30.05,29.93,22,4,22,0.01
2014-7-24,102.9,93.2,82.6,60.6,43.8,32.6,46,22,10,29.99,29.87,17,5,17,0.00
2014-7-25,98.8,82.4,70.7,67.9,62.2,50.2,86,54,21,30.02,29.92,28,3,28,0.31
2014-7-26,95.9,83.9,68.0,68.1,62.2,57.8,83,51,30,30.05,29.91,14,3,14,0.01
2014-7-27,97.0,84.5,71.8,67.3,59.4,52.7,74,46,23,30.11,29.96,22,5,22,0.05
2014-7-28,92.1,83.2,70.2,66.6,60.7,55.8,83,49,30,30.13,30.03,17,2,17,0.00
2014-7-29,99.9,87.5,72.3,63.7,56.3,43.7,69,38,15,30.08,29.94,11,3,11,0.00
2014-7-30,102.2,89.3,77.0,59.0,52.3,40.7,47,31,13,30.01,29.92,11,4,11,0.00
2014-7-31,98.6,86.6,78.6,62.8,55.8,51.7,56,36,21,30.06,29.92,11,3,11,0.00
2014-8-1,93.7,78.9,68.0,68.6,64.5,57.4,96,65,34,30.07,29.92,21,4,21,0.90
2014-8-2,88.2,75.2,70.3,70.5,68.0,64.2,95,80,46,30.05,29.96,11,2,11,0.02
2014-8-3,94.3,81.2,66.9,70.1,62.9,52.5,99,59,26,30.04,29.93,11,2,11,0.01
2014-8-4,96.4,82.8,69.6,65.4,56.6,35.4,75,46,14,30.04,29.93,12,3,12,0.00
2014-8-5,97.9,83.9,68.5,55.1,45.1,30.3,59,30,10,30.06,29.96,12,3,12,0.00
2014-8-6,99.5,85.6,70.9,54.9,45.5,32.4,53,28,10,30.03,29.92,13,3,13,0.00
2014-8-7,96.6,83.1,66.6,55.7,45.2,36.3,59,29,13,30.01,29.90,11,3,11,0.00
2014-8-8,96.3,83.3,68.0,64.8,54.5,41.3,77,42,18,30.02,29.88,14,3,14,0.00
2014-8-9,94.8,82.7,70.0,64.2,58.5,49.8,74,47,24,30.04,29.92,16,3,16,0.00
2014-8-10,97.7,82.5,72.9,68.7,59.6,54.8,67,47,25,30.04,29.93,14,3,14,0.04
2014-8-11,97.7,86.0,74.3,63.8,58.2,51.9,66,41,22,30.02,29.92,18,4,18,0.00
2014-8-12,89.8,78.8,67.6,71.8,64.4,56.9,99,66,38,30.03,29.96,15,4,15,1.25
2014-8-13,92.5,79.2,69.8,71.7,68.5,63.7,99,72,41,30.05,29.97,16,3,16,0.01
2014-8-14,91.9,79.3,71.4,69.7,66.7,63.7,86,67,42,30.04,29.96,17,2,17,0.00
2014-8-15,94.1,81.2,71.1,69.2,65.2,58.4,83,60,32,30.06,29.95,11,3,11,0.00
2014-8-16,95.9,80.8,64.4,68.9,63.9,55.5,91,60,31,30.07,29.94,28,3,28,0.46
2014-8-17,97.5,82.6,70.9,68.5,63.3,50.6,81,55,30,30.03,29.89,23,3,23,0.01
2014-8-18,91.8,79.0,67.8,68.0,63.3,57.1,95,61,33,30.00,29.88,13,3,13,0.17
2014-8-19,86.9,73.7,68.4,72.1,67.7,64.1,96,82,51,29.98,29.88,14,2,14,0.30
2014-8-20,90.5,77.7,64.9,68.6,62.9,53.2,97,65,29,30.00,29.89,8,2,8,0.00
2014-8-21,82.8,73.5,64.4,66.4,63.7,60.2,95,72,53,30.04,29.96,14,2,14,0.01
2014-8-22,88.5,76.6,64.8,66.1,60.6,56.5,94,61,35,30.03,29.94,9,3,9,0.00
2014-8-23,91.4,78.9,67.3,64.3,58.6,52.4,77,52,30,30.00,29.89,10,3,10,0.00
2014-8-24,95.4,81.2,65.7,63.1,55.9,48.3,74,45,22,29.96,29.87,11,3,11,0.00
2014-8-25,90.9,76.8,68.0,67.8,64.3,60.0,82,66,39,30.02,29.92,12,3,12,0.00
2014-8-26,91.2,76.1,69.1,69.3,65.4,60.9,94,72,38,30.06,29.95,11,3,11,0.56
2014-8-27,92.7,79.2,67.8,69.8,65.1,61.2,89,65,38,30.10,29.99,14,2,14,0.00
2014-8-28,95.7,81.7,70.9,66.0,57.5,49.1,68,46,22,30.03,29.91,8,2,8,0.00
2014-8-29,98.1,83.9,72.3,56.7,45.0,30.4,45,29,10,29.95,29.85,9,3,9,0.00
2014-8-30,99.9,85.8,72.1,51.6,42.5,30.9,47,24,10,29.95,29.85,11,3,11,0.00
2014-8-31,98.8,83.1,67.1,54.3,46.3,29.7,61,32,10,29.97,29.86,13,3,13,0.00
2014-9-1,98.8,83.9,69.4,53.3,45.4,31.6,54,30,10,29.96,29.86,13,3,13,0.00
2014-9-2,100.8,87.9,70.7,51.5,43.0,31.6,44,23,10,29.95,29.82,8,3,10,0.00
2014-9-3,99.7,83.8,68.7,56.5,49.5,33.5,57,33,10,29.89,29.77,15,3,15,0.00
2014-9-4,98.4,83.7,67.1,67.9,55.9,47.2,99,44,18,29.99,29.75,18,4,18,0.20
2014-9-5,91.4,78.8,65.7,65.6,63.1,58.5,92,61,35,30.01,29.89,11,2,11,0.00
2014-9-6,93.2,77.9,70.3,69.8,64.8,59.6,91,66,40,30.02,29.93,13,2,14,0.05
2014-9-7,91.6,81.0,72.0,67.5,64.1,60.4,82,58,36,29.99,29.86,13,3,13,0.00
2014-9-8,77.9,71.5,68.0,72.5,68.7,64.4,99,91,79,30.01,29.91,8,1,8,1.61
2014-9-9,86.0,74.9,66.4,71.5,66.6,62.5,98,77,54,30.01,29.92,8,2,8,0.00
2014-9-10,90.0,76.9,65.1,67.9,60.6,53.8,91,61,31,30.00,29.90,8,2,8,0.00
2014-9-11,94.3,80.2,68.4,61.7,56.1,40.7,69,47,16,29.95,29.86,6,3,8,0.00
2014-9-12,98.4,82.9,69.6,62.2,56.2,50.8,61,42,21,29.93,29.84,17,4,23,0.00
2014-9-13,91.2,81.8,70.7,63.4,58.4,54.3,68,46,33,29.95,29.86,18,4,18,0.00
2014-9-14,93.4,81.8,66.7,62.2,57.9,54.4,71,46,31,29.94,29.85,10,2,11,0.00
2014-9-15,95.5,84.0,72.9,64.3,60.1,57.1,64,46,30,29.98,29.88,9,2,9,0.00
2014-9-16,80.4,75.2,69.1,68.4,65.2,62.0,94,71,61,30.02,29.89,12,3,12,0.12
2014-9-17,81.5,73.1,68.7,71.0,66.2,62.7,94,80,59,29.90,29.80,13,4,13,0.17
2014-9-18,77.9,71.5,67.6,70.0,66.9,63.5,95,86,71,29.88,29.80,6,1,6,0.11
2014-9-19,86.5,74.6,66.7,73.2,68.4,64.4,94,82,53,29.93,29.85,11,2,11,0.40
2014-9-20,87.6,76.5,68.4,70.1,67.5,63.1,95,75,45,29.98,29.91,8,2,8,0.00
2014-9-21,92.7,78.6,68.2,67.8,64.5,59.6,93,65,37,30.03,29.93,10,2,10,0.00
2014-9-22,93.0,79.8,68.4,67.8,62.9,58.2,83,59,32,30.05,29.94,8,2,8,0.00
2014-9-23,95.2,81.2,71.2,66.5,60.2,50.3,72,51,22,30.04,29.92,13,3,13,0.00
2014-9-24,97.9,83.2,72.0,62.3,57.5,51.4,62,44,25,30.01,29.91,8,2,8,0.00
2014-9-25,97.5,80.8,70.2,70.2,61.1,52.4,83,54,25,30.03,29.92,10,2,10,0.07
2014-9-26,89.6,77.3,68.4,68.1,64.1,60.7,87,66,42,30.01,29.89,6,2,6,0.05
2014-9-27,89.6,75.7,64.8,65.1,61.8,56.5,94,65,34,29.91,29.76,15,3,15,0.00
2014-9-28,86.0,74.8,63.5,67.7,57.4,47.1,76,57,29,29.93,29.85,15,5,15,0.01
2014-9-29,86.2,71.8,60.6,61.6,48.5,34.1,75,47,22,29.93,29.85,11,3,11,0.00
2014-9-30,86.2,70.3,57.2,44.3,37.2,28.2,57,33,13,29.91,29.82,9,3,9,0.00
2014-10-1,86.2,71.4,57.0,49.8,39.2,27.1,57,34,13,29.91,29.81,11,3,11,0.00
2014-10-2,88.2,72.8,61.3,41.6,32.1,14.8,47,25,10,30.05,29.91,12,4,12,0.00
2014-10-3,94.6,77.3,63.0,36.0,27.5,21.2,30,17,10,30.08,30.00,9,3,9,0.00
2014-10-4,94.3,77.6,60.3,46.0,32.1,23.2,50,21,10,30.05,29.95,9,3,9,0.00
2014-10-5,90.3,74.7,57.6,49.3,42.2,35.3,60,34,17,30.02,29.91,11,3,11,0.00
2014-10-6,89.8,74.3,60.4,42.6,37.6,27.8,48,29,11,30.02,29.93,8,3,8,0.00
2014-10-7,90.0,76.2,66.7,55.9,38.7,25.8,61,28,11,30.02,29.91,11,3,11,0.00
2014-10-8,70.7,66.2,62.4,67.4,62.9,55.3,99,89,60,29.96,29.83,11,2,11,0.47
2014-10-9,72.0,62.7,57.4,71.7,61.7,56.1,99,96,81,29.97,29.88,10,2,10,0.24
2014-10-10,82.8,69.4,56.3,61.9,58.0,51.9,98,70,42,30.02,29.96,11,3,11,0.01
2014-10-11,87.1,71.6,60.3,54.9,49.3,39.3,68,48,20,30.03,29.93,11,3,11,0.00
2014-10-12,83.3,70.2,59.0,55.0,46.9,42.1,71,45,24,29.95,29.87,15,4,15,0.00
2014-10-13,83.3,69.7,57.2,52.0,33.3,22.8,80,30,14,30.06,29.93,10,3,10,0.00
2014-10-14,89.4,72.3,59.0,43.6,35.3,24.7,54,28,10,30.05,29.93,8,3,8,0.00
2014-10-15,90.0,73.5,57.0,50.9,43.5,35.0,55,36,17,30.00,29.93,10,3,10,0.00
2014-10-16,88.2,72.8,59.9,54.4,46.8,26.0,68,43,12,30.01,29.91,10,3,10,0.00
2014-10-17,84.6,69.9,61.9,49.5,42.9,35.8,50,39,19,30.01,29.88,11,3,11,0.00
2014-10-18,88.7,73.2,59.4,48.2,43.3,32.7,55,37,14,29.92,29.81,10,3,10,0.00
2014-10-19,85.6,67.7,59.0,60.0,49.6,45.8,81,54,26,29.93,29.82,25,3,25,0.20
2014-10-20,84.2,68.6,52.0,57.0,50.7,47.4,88,56,33,29.95,29.86,9,2,9,0.00
2014-10-21,83.5,70.4,55.9,54.9,50.1,47.2,76,50,29,29.93,29.85,10,2,10,0.00
2014-10-22,86.7,72.0,61.5,53.5,49.1,41.4,61,46,21,30.01,29.91,8,3,8,0.00
2014-10-23,88.3,73.4,61.2,51.9,46.7,42.3,57,41,21,30.07,29.98,8,3,8,0.00
2014-10-24,91.0,75.9,64.6,48.7,43.6,34.9,46,34,16,30.10,30.01,8,3,8,0.00
2014-10-25,91.9,77.4,66.0,52.8,48.3,40.9,53,38,19,30.10,29.98,9,2,9,0.00
2014-10-26,86.2,73.3,64.2,59.5,55.4,52.4,72,55,35,29.99,29.86,11,2,11,0.00
2014-10-27,82.0,69.1,59.5,57.3,51.7,40.8,79,57,26,29.96,29.84,14,2,14,0.00
2014-10-28,83.7,68.8,58.5,54.0,47.4,35.9,68,49,19,30.04,29.96,8,3,8,0.00
2014-10-29,86.5,70.8,57.6,46.7,41.4,34.6,54,37,16,30.08,29.99,8,3,8,0.00
2014-10-30,90.1,74.6,61.5,39.0,31.9,23.0,43,23,10,30.06,29.96,10,2,10,0.00
2014-10-31,88.9,73.1,60.6,50.0,44.9,37.3,64,38,20,29.99,29.86,11,2,11,0.00
2014-11-1,82.9,67.5,56.3,53.2,45.7,31.3,82,51,16,29.93,29.84,16,3,16,0.00
2014-11-2,69.3,60.0,48.0,54.6,47.1,34.9,82,63,43,29.98,29.87,12,4,12,0.00
2014-11-3,68.2,54.4,45.3,36.7,31.7,22.2,64,45,19,30.03,29.95,13,3,13,0.00
2014-11-4,72.5,57.8,45.3,33.7,27.8,18.5,52,34,14,30.07,29.99,12,4,12,0.00
2014-11-5,73.8,64.2,54.1,39.5,33.9,23.7,49,33,20,30.13,30.00,18,6,18,0.00
2014-11-6,75.2,66.3,55.9,41.3,34.8,25.7,50,31,23,30.22,30.13,25,6,25,0.00
2014-11-7,81.1,64.2,47.8,41.8,36.5,17.0,66,39,10,30.17,30.01,15,2,15,0.00
2014-11-8,84.7,69.3,57.2,35.4,27.7,18.4,37,23,10,30.11,30.01,12,3,12,0.00
2014-11-9,82.6,66.1,50.7,35.9,30.9,22.5,54,29,12,30.04,29.85,8,2,8,0.00
2014-11-10,80.4,62.9,46.0,42.5,35.1,20.5,69,41,12,29.91,29.80,14,4,14,0.00
2014-11-11,78.1,63.3,51.3,48.0,44.4,38.6,80,53,27,29.94,29.86,11,2,11,0.00
2014-11-12,76.5,62.4,51.6,54.1,45.5,36.7,88,59,25,29.99,29.88,11,2,11,0.00
2014-11-13,76.1,62.8,51.1,52.1,44.8,40.3,77,55,29,30.03,29.95,11,3,11,0.00
2014-11-14,73.2,60.2,50.9,54.1,48.7,42.9,84,67,46,29.98,29.90,11,3,12,0.00
2014-11-15,72.0,59.0,48.2,54.2,45.5,39.0,95,64,32,30.03,29.91,11,2,11,0.00
2014-11-16,66.2,55.3,44.2,51.6,31.3,0.3,81,48,12,30.09,29.87,8,3,13,0.00
2014-11-17,67.6,51.4,33.3,18.4,10.0,2.9,46,20,10,30.12,30.02,4,1,9,0.00
2014-11-18,70.9,53.8,37.6,18.1,8.9,-0.9,35,17,10,30.17,30.06,3,1,7,0.00
2014-11-19,72.9,56.3,39.4,13.4,5.5,-7.3,28,13,10,30.14,30.02,4,1,7,0.00
2014-11-20,72.1,57.0,47.1,24.6,11.4,4.5,35,18,10,30.06,29.95,4,1,8,0.00
2014-11-21,68.9,54.5,44.1,27.3,21.3,6.8,47,29,10,29.97,29.85,5,1,9,0.00
2014-11-22,70.7,53.2,41.4,29.9,25.1,18.4,55,36,14,30.05,29.93,4,1,9,0.00
2014-11-23,64.8,52.5,38.8,34.4,21.7,-8.1,64,34,10,30.10,29.92,9,2,101,0.00
2014-11-24,63.9,51.5,43.5,6.3,-2.2,-9.4,17,11,10,30.24,30.08,7,2,12,0.00
2014-11-25,67.1,50.1,30.7,8.8,-1.2,-9.3,28,12,10,30.33,30.22,5,1,12,0.00
2014-11-26,75.6,57.4,35.8,21.4,10.3,-2.9,31,16,10,30.23,30.14,5,1,10,0.00
2014-11-27,83.3,64.4,45.1,25.8,16.3,6.3,37,17,10,30.18,30.08,4,1,6,0.00
2014-11-28,76.8,58.7,49.8,19.5,14.0,10.8,27,17,10,30.08,30.04,3,1,6,0.00
2014-12-15,62.1,51.8,46.9,39.3,37.3,36.2,70,58,39,30.17,30.13,3,1,6,0.00
2014-12-16,65.7,52.6,45.5,44.6,38.6,35.3,84,61,35,30.20,30.10,4,1,8,0.00
2014-12-17,52.7,46.5,43.9,48.7,44.3,37.5,99,93,71,30.25,30.13,7,0,17,0.56
2014-12-18,52.7,45.6,39.9,47.9,43.5,36.7,99,93,70,30.29,30.19,4,1,8,0.21
2014-12-19,61.0,46.8,37.4,43.4,38.1,31.9,90,73,45,30.33,30.22,5,1,11,0.00
2014-12-20,61.5,48.2,35.1,41.6,36.3,30.2,90,65,37,30.27,30.17,4,1,8,0.00
2014-12-21,63.1,49.4,41.4,39.4,35.9,29.4,86,62,30,30.26,30.16,4,1,8,0.00
2014-12-22,64.2,49.7,37.8,44.3,39.7,35.4,93,71,44,30.18,30.05,4,1,11,0.00
2014-12-23,57.9,49.1,41.5,42.8,22.6,3.1,91,44,11,30.27,30.10,10,2,21,0.00
2014-12-24,63.5,48.2,32.2,26.4,16.9,4.6,58,31,10,30.26,29.99,4,1,10,0.00
2014-12-25,65.7,49.3,41.5,40.5,26.5,8.9,91,47,12,29.99,29.85,10,2,21,0.08
2014-12-26,51.1,40.3,27.0,38.0,20.5,6.2,86,49,17,30.19,29.95,6,1,13,0.00
2014-12-27,61.2,39.4,30.4,22.2,17.9,10.9,62,45,19,30.38,30.16,5,1,11,0.00
2014-12-28,57.4,42.3,27.7,25.8,18.9,9.0,69,42,15,30.35,30.22,5,1,9,0.00
2014-12-29,62.2,45.3,35.2,21.1,11.8,-2.4,52,29,10,30.26,30.14,4,1,7,0.00
2014-12-30,68.0,48.7,31.6,23.1,15.2,2.3,59,31,10,30.15,30.02,8,2,15,0.00
2014-12-31,57.2,43.2,31.5,39.6,28.7,9.3,99,65,17,30.09,29.95,12,2,22,0.39
2015-1-1,43.2,31.7,23.5,38.0,29.6,23.1,99,92,77,30.17,30.07,4,1,8,0.44
2015-1-2,42.1,31.6,23.9,31.8,26.5,21.4,96,82,62,30.18,30.06,4,1,7,0.02